Regional Weather Roundup
Issued by NWS Midland/Odessa, TX

Skip options and go directly to product.
Home | Oldest Version | Previous Version | Current Version | All | Text Only | Save Text | Print | Product List | Glossary On

Skip product version selection by date and time.   
154
ASUS44 KMAF 252110
RWRMAF
MIDLAND AREA WEATHER ROUNDUP
NATIONAL WEATHER SERVICE MIDLAND TX
400 PM CDT SAT APR 25 2015

...IN SOUTHWEST TEXAS AND SOUTHEAST NEW MEXICO...

CITY           SKY/WX    TMP DP  RH WIND       PRES   REMARKS
ALPINE         SUNNY     76  25  15 SW15G23   29.96F
ANDREWS        FAIR      80  31  17 W16       29.80F
ARTESIA        SUNNY     81  27  13 SW22G29   29.78F
BIG SPRING     SUNNY     84  25  11 SW21G28   29.80F
CARLSBAD       SUNNY     81  20  10 SW17G32   29.78F
DRYDEN           N/A     90  17   7 SW12G21   29.77F
FORT STOCKTON  SUNNY     83  26  12 SW10G22   29.82F
GUAD PASS      SUNNY     72  19  13 W43G55    29.88F
HOBBS          SUNNY     77  28  16 SW18G29   29.81F
MARFA          SUNNY     73  28  19 SW13G20   29.96F
MIDLAND AIRPK  SUNNY     83  27  13 SW18G35   29.80F
MIDLAND INTL   SUNNY     82  29  14 SW18G32   29.80F
ODESSA         SUNNY     82  23  11 W22G33    29.81F
PECOS          SUNNY     85  27  12 SW14G22   29.79F
PRESIDIO       FAIR      84  24  11 CALM      29.83F
SEMINOLE       SUNNY     80  27  14 W24G35    29.81F
SNYDER         SUNNY     80  38  21 W20G28    29.76F
WINK           SUNNY     84  20   9 SW21G28   29.78F
$$
...OTHER STATIONS IN TEXAS...

CITY           SKY/WX    TMP DP  RH WIND       PRES   REMARKS
ABILENE        SUNNY     84  39  20 SW20      29.73F
AMARILLO       SUNNY     79  28  15 S14G21    29.70F
AUSTIN         MOSUNNY   91  51  25 SW3       29.70F
BROWNSVILLE    MOSUNNY   92  79  65 NE14      29.69F HX 108
CORPUS CHRISTI PTSUNNY   80  73  79 E10       29.74F
DALLAS FTW     SUNNY     86  44  23 SW17G26   29.64F
DEL RIO        SUNNY     89  48  24 SE6       29.73F
EL PASO        MOSUNNY   79  16   9 SW24G31   29.86F
HOUSTON INT    MOSUNNY   86  69  56 S7        29.71F
LUBBOCK        MOSUNNY   80  29  15 SW18G28   29.74F
SAN ANGELO     SUNNY     87  29  12 W20G28    29.75F
SAN ANTONIO    MOSUNNY   90  53  28 S9        29.73F
WACO           SUNNY     88  47  24 W14       29.68F
WICHITA FALLS  NOT AVBL
$$
...OTHER LOCATIONS IN NEW MEXICO...

CITY           SKY/WX    TMP DP  RH WIND       PRES   REMARKS
ALAMAGORDO     MOSUNNY   73  27  17 S14G21    29.86F
ALBUQUERQUE    PTSUNNY   67  27  22 SW8G17    29.83F
CANNON AFB     SUNNY     75  26  16 W25G38    29.76F
CLOVIS         SUNNY     75  27  16 W29G35    29.75F
HOLLOMAN AFB   NOT AVBL
ROSWELL        SUNNY     79  26  14 SW10G22   29.75F
RUIDOSO        SUNNY     63  27  25 SW20G28   29.93S
SANTA FE       CLOUDY    60  28  29 W12G20    29.87F
TRUTH OR CONSE MOSUNNY   73  21  14 W9G26     29.81F
TUCUMCARI      SUNNY     78  23  13 W24G33    29.69F
$$

USA.gov is the U.S. government's official web portal to all federal, state and local government web resources and services.